Weather History for Shirley, NY

Change the Weather History Date:

Monday, July 15, 2013

  Actual Average (KISP) Record (KISP)
Temperature  
Mean Temperature 84 °F 74 °F  
Max Temperature 93 °F 82 °F 97 °F (1995)
Min Temperature 75 °F 66 °F 56 °F (1999)
Degree Days  
Heating Degree Days 0 0  
Month to date heating degree days 0  
Since 1 June heating degree days 38  
Since 1 July heating degree days 0  
Cooling Degree Days 19 9  
Month to date cooling degree days 128  
Year to date cooling degree days 292  
Since 1 June cooling degree days 268  
Growing Degree Days 34 (Base 50)    
Moisture  
Dew Point 72 °F    
Average Humidity 70    
Maximum Humidity 87    
Minimum Humidity 48    
Precipitation  
Precipitation 0.00 in 0.11 in 1.65 in (1992)
Month to date precipitation 1.55  
Year to date precipitation 25.28  
Snow  
Snow 0.00 in 0.00 in - ()
Month to date snowfall 0.0  
Since 1 July snowfall 0.0  
Snow Depth -    
Sea Level Pressure  
Sea Level Pressure 30.18 in    
Wind  
Wind Speed 5 mph (WNW)    
Max Wind Speed 12 mph    
Max Gust Speed -    
Visibility 10 miles    
Events      
T = Trace of Precipitation, MM = Missing Value Source: NWS Daily Summary

Daily Weather History Graph

Daily Weather History Graph

Search for Another Location

Airport:

Trip Planner

Search our weather history database for the weather conditions in past years. The results will help you decide how hot, cold, wet, or windy it might be!

Date:

Astronomy

Jul. 15, 2013 Rise Set
Actual Time 5:32 AM EDT 8:21 PM EDT
Civil Twilight 5:00 AM EDT 8:53 PM EDT
Nautical Twilight 4:19 AM EDT 9:34 PM EDT
Astronomical Twilight 3:32 AM EDT 10:21 PM EDT
Moon 12:52 PM EDT (7/15) No Moon Set
Length of Visible Light 15h 53m
Length of Day
14h 48m
Waxing Crescent, 45% of the Moon is Illuminated
Jul 15
Waxing Crescent
Jul 15
First Quarter
Jul 22
Full
Jul 29
Last Quarter
Aug 6
New

Hourly Weather History & Observations

Time (EDT) Temp. Heat Index Dew Point Humidity Pressure Visibility Wind Dir Wind Speed Gust Speed Precip Events Conditions
12:56 AM 77.0 °F - 72.0 °F 84% 30.23 in 10.0 mi WSW 4.6 mph - N/A   Clear
1:56 AM 77.0 °F - 72.0 °F 84% 30.22 in 10.0 mi WSW 6.9 mph - N/A   Clear
2:56 AM 77.0 °F - 72.0 °F 84% 30.22 in 10.0 mi WSW 3.5 mph - N/A   Mostly Cloudy
3:56 AM 75.9 °F - 72.0 °F 87% 30.22 in 10.0 mi West 4.6 mph - N/A   Scattered Clouds
4:56 AM 77.0 °F - 72.0 °F 84% 30.22 in 10.0 mi West 4.6 mph - N/A   Overcast
5:56 AM 78.1 °F - 72.0 °F 81% 30.22 in 10.0 mi West 3.5 mph - N/A   Overcast
6:56 AM 79.0 °F - 72.0 °F 79% 30.23 in 10.0 mi West 3.5 mph - N/A   Mostly Cloudy
7:56 AM 82.0 °F 86.7 °F 72.0 °F 71% 30.23 in 10.0 mi WNW 8.1 mph - N/A   Scattered Clouds
8:56 AM 86.0 °F 93.0 °F 73.0 °F 65% 30.22 in 10.0 mi NNW 8.1 mph - N/A   Clear
9:56 AM 87.1 °F 93.6 °F 72.0 °F 61% 30.21 in 10.0 mi NW 5.8 mph - N/A   Partly Cloudy
10:56 AM 89.1 °F 97.0 °F 73.0 °F 59% 30.20 in 10.0 mi NW 8.1 mph - N/A   Clear
11:56 AM 91.0 °F 99.3 °F 73.0 °F 55% 30.19 in 10.0 mi NNW 9.2 mph - N/A   Clear
12:56 PM 91.9 °F 99.5 °F 72.0 °F 52% 30.19 in 10.0 mi NNW 8.1 mph - N/A   Clear
1:56 PM 93.0 °F 101.9 °F 73.0 °F 52% 30.17 in 10.0 mi NNW 11.5 mph - N/A   Clear
2:56 PM 93.0 °F 100.7 °F 72.0 °F 50% 30.16 in 10.0 mi North 10.4 mph - N/A   Scattered Clouds
3:56 PM - - - N/A% 30.15 in - North - - N/A   Unknown
4:56 PM - - - N/A% 30.14 in - North - - N/A   Unknown
5:56 PM 91.0 °F 95.6 °F 69.1 °F 48% 30.14 in 10.0 mi NNW 8.1 mph - N/A   Clear
6:56 PM 89.1 °F 93.7 °F 69.1 °F 52% 30.13 in 10.0 mi NNW 4.6 mph - N/A   Clear
7:56 PM 82.0 °F 85.9 °F 70.0 °F 67% 30.14 in 10.0 mi Calm Calm - N/A   Clear
8:56 PM 78.1 °F - 70.0 °F 76% 30.14 in 10.0 mi Calm Calm - N/A   Clear
9:56 PM 75.9 °F - 70.0 °F 82% 30.15 in 10.0 mi Calm Calm - N/A   Clear
10:56 PM 75.9 °F - 71.1 °F 85% 30.15 in 10.0 mi Calm Calm - N/A   Clear
11:56 PM 75.0 °F - 71.1 °F 87% 30.15 in 10.0 mi Calm Calm - N/A   Clear